Voltar ao catálogo

STARLINK-37366

AtivoComunicaçõesSSO
NORAD 68807·PAYLOAD·🇺🇸 United States

Lançado Apr 23, 2026 de Vandenberg Space Force Base

Loading…

Próximas Passagens (próximas 24 horas)

TLE

AtualizadoSource: CelesTrak SupGP

Época: Sep 15, 2026, 04:16 UTC

1 68807C 26089F   26258.17826389 -.00050965  00000+0 -15819-2 0  2581
2 68807  97.2849 103.9651 0001995  91.4180 146.5194 15.33467931    15

Acompanhe STARLINK-37366 em tempo real com AllMySat

Download on the App Store